[[{"header":{"parameterUnit":"m.s-1","parameterCategory":1,"la1":30.2991,"la2":30.254,"lo1":-89.0895,"lo2":-89.0444,"dy":0.0017,"dx":0.0017,"nx":28,"ny":28,"refTime":"2024-06-02T09:00:00:Z","depth":0,"parameterNumber":2,"parameterNumberName":"U-component_of_WINDS"},"data":[0,0,0,0,0,0,0,0,0,0,0,0,0,0,0,0,0,0,0,0,0,0,0,0,0,0,0,0,0,0,0,0,0,0,0,0,0,0,0,0,0,0,0,0,0,0,0,0,0,0,0,0,0,0,0,0,0,0,0.3632,0.3631,0,0.3605,0.3605,0.3604,0.3506,0.3503,0.3501,0.3499,0.3478,0.348,0.3481,0,0,0,0,0,0,0,0,0,0,0,0,0,0.3603,0.3604,0.3632,0.3631,0.3631,0.3605,0.3605,0.3604,0.3506,0.3503,0.35,0.3498,0.3478,0.348,0.3482,0,0,0,0,0,0,0,0,0,0,0,0,0,0.36,0.3604,0.3632,0.3579,0.3574,0.3605,0.3605,0.3604,0.3507,0.3503,0.35,0.3497,0.3477,0.3479,0.3482,0.3564,0,0,0.3489,0.349,0,0,0,0,0,0,0,0,0.36,0.3601,0.3587,0.3582,0.3577,0.3555,0.3587,0.3591,0.3507,0.3532,0.3499,0.3495,0.3507,0.3507,0.3509,0.3563,0.3562,0.3489,0.3491,0.3492,0.3492,0,0,0,0,0,0,0,0.3601,0.3602,0.3621,0.3587,0.3581,0.3558,0.3554,0.3587,0.3539,0.353,0.3523,0.352,0.3504,0.3507,0.3508,0.3562,0.3489,0.3491,0.3493,0.3494,0.3681,0.3684,0,0,0,0,0,0,0.3608,0.3603,0.3622,0.362,0.358,0.3561,0.3556,0.3566,0.3539,0.3531,0.3523,0.3516,0.3505,0.3506,0.3507,0.3601,0.3492,0.3494,0.3495,0.3678,0.3682,0.3686,0,0,0,0,0,0,0.3607,0.361,0.3623,0.3609,0.3609,0.3565,0.3576,0.3567,0.357,0.3534,0.3525,0.3536,0.3502,0.3504,0.355,0.3599,0.3495,0.3497,0.3673,0.3679,0.3684,0.379,0,0,0,0,0,0,0.3607,0.3611,0.3641,0.3611,0.361,0.3666,0.3579,0.3569,0.3574,0.3564,0.3543,0.3536,0.35,0.3547,0.3552,0.36,0.3499,0.3669,0.3676,0.3682,0.3782,0.3798,0.3812,0,0,0,0,0,0.3606,0.3674,0.3643,0.3646,0.3647,0.3668,0.3668,0.3623,0.3578,0.3608,0.3584,0.3537,0.3592,0.3553,0.3558,0.3607,0.3666,0.3674,0.3682,0.3775,0.3795,0.3812,0,0,0,0,0,0,0.3713,0.3669,0.3634,0.3693,0.3685,0.3652,0.3689,0.3646,0.3653,0.3643,0.3589,0.3585,0.3639,0.3628,0.3584,0.3685,0.3621,0.363,0.369,0.3709,0.3724,0.3726,0.3501,0,0,0,0,0,0.3743,0.3763,0.3724,0.378,0.3777,0.3734,0.3742,0.3707,0.3698,0.3694,0.3674,0.3668,0.3684,0.3696,0.3708,0.378,0.3774,0.3816,0.3831,0.3844,0.3853,0.3889,0.3907,0.3712,0.3712,0.3712,0,0,0.3807,0.3784,0.3801,0.3801,0.379,0.3813,0.3732,0.376,0.3777,0.3699,0.3741,0.3726,0.3715,0.3774,0.3799,0.3766,0.3905,0.3854,0.3864,0.3867,0.3899,0.3917,0.3934,0.3718,0.3717,0.3716,0,0,0.3933,0.3918,0.3963,0.3953,0.3937,0.3907,0.3918,0.3891,0.3877,0.3917,0.3859,0.3879,0.3908,0.3902,0.3903,0.4026,0.3982,0.4031,0.4111,0.4147,0.4162,0.4176,0.4219,0.4235,0.4041,0.4041,0.4041,0,0.4014,0.4044,0.3992,0.4022,0.4024,0.3952,0.3997,0.3991,0.3982,0.3985,0.3948,0.3981,0.3969,0.4025,0.4054,0.4058,0.4069,0.4034,0.4164,0.4177,0.4189,0.4229,0.4246,0.4047,0.4046,0.4046,0.4045,0,0.4145,0.4167,0.4205,0.4194,0.42,0.4238,0.4192,0.4205,0.417,0.4144,0.4186,0.4169,0.4176,0.4187,0.4154,0.4238,0.4218,0.4173,0.4108,0.4214,0.4251,0.4267,0.4056,0.4053,0.4052,0.405,0,0,0.434,0.4297,0.4312,0.4305,0.4282,0.4298,0.4333,0.4338,0.4349,0.4345,0.4373,0.4398,0.4356,0.4357,0.4323,0.4354,0.4451,0.4305,0.4304,0.4333,0.4542,0.4576,0.4595,0.4421,0.4424,0.4426,0.4543,0,0.446,0.4515,0.4467,0.4532,0.4551,0.4482,0.4513,0.4502,0.4479,0.4493,0.4469,0.4487,0.443,0.443,0.4457,0.4433,0.4493,0.4424,0.4449,0.445,0.4453,0.4614,0.4651,0.4762,0.4557,0.456,0.4561,0,0.4608,0.4606,0.4672,0.4642,0.4649,0.4677,0.4676,0.469,0.4677,0.4658,0.4658,0.4615,0.4648,0.4583,0.4628,0.4583,0.459,0.458,0.4583,0.4584,0.4513,0.462,0.4796,0.4813,0.4584,0.4582,0.4581,0,0.4743,0.4758,0.4799,0.4796,0.4762,0.4783,0.477,0.4753,0.4758,0.4758,0.4761,0.4766,0.477,0.4775,0.4734,0.4691,0.4785,0.4717,0.4771,0.4772,0.4795,0.4794,0.4974,0.4799,0.4799,0.4799,0.4798,0,0.4882,0.4925,0.4859,0.4884,0.493,0.4876,0.4923,0.4904,0.4889,0.491,0.4851,0.4873,0.4817,0.4833,0.4802,0.4844,0.4846,0.4833,0.4824,0.4838,0.484,0.4842,0.4834,0.4803,0.4802,0.4801,0.48,0,0.5042,0.4999,0.5038,0.5002,0.4994,0.503,0.4999,0.5022,0.4993,0.5021,0.5024,0.4981,0.4997,0.4956,0.4967,0.4946,0.5006,0.4985,0.501,0.5004,0.506,0.5055,0.5248,0.5271,0.5082,0.5083,0.5085,0,0.5133,0.5164,0.513,0.5139,0.5128,0.5143,0.5147,0.5095,0.5102,0.5087,0.5112,0.5122,0.5127,0.5156,0.5127,0.5134,0.5113,0.518,0.5114,0.5126,0.5114,0.5112,0.5115,0.5194,0.5196,0.5198,0.52,0,0.5301,0.5277,0.5284,0.5283,0.5289,0.5286,0.528,0.5291,0.5235,0.5246,0.5259,0.5263,0.5272,0.5283,0.5283,0.5272,0.5227,0.522,0.5233,0.5248,0.5261,0.5255,0.5047,0.5217,0.5215,0.5214,0.5213,0.5212,0.5429,0.5453,0.5431,0.5441,0.543,0.5424,0.5443,0.5416,0.5426,0.5427,0.5396,0.5416,0.5401,0.5396,0.5389,0.5405,0.5375,0.5394,0.5398,0.5404,0.5413,0.5258,0.5405,0.5405,0.5404,0.5404,0.5403,0,0.5593,0.5575,0.5584,0.5575,0.5583,0.5536,0.5527,0.5537,0.5554,0.5543,0.5548,0.5563,0.5573,0.5544,0.555,0.5568,0.5548,0.5571,0.557,0.5568,0.544,0.5428,0.5588,0.5588,0.5588,0.5588,0.5588,0.5587,0.5679,0.5716,0.569,0.5721,0.5703,0.5721,0.5719,0.5714,0.5704,0.5723,0.573,0.571,0.5691,0.5695,0.5702,0.5693,0.5698,0.5729,0.5713,0.5595,0.5577,0.556,0.5548,0.5731,0.5731,0.584,0.5841,0.5841]},{"header":{"parameterUnit":"m.s-1","parameterCategory":1,"la1":30.2991,"la2":30.254,"lo1":-89.0895,"lo2":-89.0444,"dy":0.0017,"dx":0.0017,"nx":28,"ny":28,"refTime":"2024-06-02T09:00:00:Z","depth":0,"parameterNumber":3,"parameterNumberName":"V-component_of_WINDS"},"data":[0,0,0,0,0,0,0,0,0,0,0,0,0,0,0,0,0,0,0,0,0,0,0,0,0,0,0,0,0,0,0,0,0,0,0,0,0,0,0,0,0,0,0,0,0,0,0,0,0,0,0,0,0,0,0,0,0,0,1.3432,1.3434,0,1.3657,1.3659,1.3662,1.372,1.3719,1.3717,1.3716,1.3937,1.3944,1.3951,0,0,0,0,0,0,0,0,0,0,0,0,0,1.3041,1.3048,1.3431,1.3434,1.3437,1.3657,1.366,1.3663,1.372,1.3718,1.3717,1.3715,1.3935,1.3943,1.3952,0,0,0,0,0,0,0,0,0,0,0,0,0,1.3232,1.305,1.3431,1.3492,1.35,1.3656,1.366,1.3663,1.3721,1.3718,1.3716,1.3714,1.3932,1.3942,1.3953,1.4061,0,0,1.3986,1.3991,0,0,0,0,0,0,0,0,1.3221,1.3247,1.3481,1.3488,1.3497,1.3658,1.3603,1.3796,1.3721,1.3637,1.3716,1.3713,1.3845,1.3863,1.391,1.4071,1.4081,1.3987,1.3993,1.3998,1.4001,0,0,0,0,0,0,0,1.3208,1.3237,1.352,1.3484,1.3494,1.3505,1.353,1.364,1.3749,1.3644,1.3649,1.3675,1.385,1.3899,1.3915,1.4084,1.3987,1.3996,1.4003,1.4007,1.4342,1.4344,0,0,0,0,0,0,1.3185,1.3226,1.3513,1.3527,1.3352,1.3514,1.3542,1.3609,1.3749,1.3768,1.3676,1.3677,1.3882,1.3903,1.3923,1.4058,1.3998,1.4008,1.4014,1.434,1.4343,1.4345,0,0,0,0,0,0,1.3177,1.3211,1.3504,1.3378,1.3416,1.3523,1.3597,1.3614,1.3664,1.3773,1.3792,1.3708,1.3881,1.3908,1.4026,1.4066,1.4013,1.4023,1.4337,1.4341,1.4344,1.4327,0,0,0,0,0,0,1.3165,1.3207,1.3252,1.3379,1.3423,1.3606,1.36,1.362,1.3684,1.3686,1.3808,1.3826,1.3881,1.401,1.4037,1.408,1.4031,1.4334,1.4339,1.4343,1.4324,1.433,1.4334,0,0,0,0,0,1.3151,1.3236,1.3254,1.3288,1.3481,1.3609,1.3634,1.3699,1.3687,1.373,1.38,1.3822,1.4057,1.4022,1.4052,1.4099,1.4331,1.4337,1.4343,1.4322,1.4329,1.4334,0,0,0,0,0,0,1.3108,1.3254,1.3275,1.3404,1.3494,1.3618,1.3676,1.3704,1.3796,1.3794,1.3868,1.3895,1.4008,1.4065,1.4023,1.4209,1.4194,1.4206,1.4168,1.4175,1.418,1.4163,1.404,0,0,0,0,0,1.3114,1.3209,1.333,1.3432,1.3476,1.3568,1.3626,1.3669,1.3763,1.3801,1.3879,1.3967,1.4061,1.4121,1.4214,1.4333,1.4359,1.438,1.4385,1.4388,1.4397,1.4462,1.4473,1.4363,1.4363,1.4363,0,0,1.3127,1.3218,1.3273,1.3426,1.35,1.3593,1.36,1.3698,1.3767,1.3815,1.3932,1.3992,1.4095,1.4214,1.427,1.4265,1.4433,1.4395,1.4397,1.4405,1.4469,1.4479,1.4488,1.4367,1.4367,1.4366,0,0,1.3197,1.3277,1.337,1.3445,1.3559,1.3619,1.3641,1.3762,1.3805,1.3924,1.3961,1.4042,1.4203,1.4275,1.4332,1.4428,1.445,1.4455,1.448,1.4543,1.4551,1.4559,1.4592,1.4603,1.4464,1.4464,1.4464,0,1.3197,1.3343,1.3414,1.3511,1.3576,1.3626,1.3719,1.3787,1.3924,1.3966,1.3959,1.4161,1.4234,1.4369,1.4393,1.4438,1.4463,1.4442,1.4545,1.4554,1.4562,1.4594,1.4606,1.4464,1.4464,1.4464,1.4464,0,1.3337,1.3436,1.3497,1.3631,1.3703,1.3797,1.3879,1.3943,1.3978,1.4038,1.4157,1.4246,1.4357,1.4392,1.4427,1.4532,1.4525,1.4531,1.4517,1.4571,1.4602,1.4615,1.4464,1.4464,1.4464,1.4464,0,0,1.3387,1.3559,1.358,1.3641,1.3769,1.3846,1.3941,1.4052,1.4104,1.4196,1.4275,1.441,1.4415,1.448,1.4523,1.4578,1.4646,1.4577,1.458,1.4586,1.4765,1.476,1.4773,1.4662,1.4665,1.4667,1.4756,0,1.3472,1.3648,1.3714,1.3856,1.3948,1.3996,1.4078,1.4164,1.4222,1.4305,1.4368,1.4461,1.4463,1.4502,1.4559,1.4626,1.4683,1.4621,1.4734,1.4737,1.4706,1.4789,1.4785,1.4864,1.4769,1.4771,1.4772,0,1.3596,1.3692,1.3844,1.3961,1.4001,1.4075,1.4181,1.4261,1.4358,1.4396,1.4468,1.4508,1.4605,1.4585,1.4719,1.4675,1.4725,1.4765,1.4769,1.4781,1.4757,1.4802,1.4891,1.4903,1.4792,1.4791,1.4789,0,1.3615,1.3783,1.3895,1.3946,1.4085,1.4135,1.4194,1.4289,1.4351,1.4443,1.4483,1.4584,1.4638,1.4713,1.4777,1.4757,1.4904,1.489,1.4936,1.4934,1.4964,1.4961,1.5061,1.4998,1.4998,1.4997,1.4997,0,1.3704,1.3794,1.3906,1.3975,1.4077,1.415,1.4248,1.431,1.4394,1.4473,1.4519,1.4592,1.4673,1.4755,1.4805,1.4907,1.4931,1.4962,1.4974,1.4958,1.4954,1.4991,1.4986,1.5001,1.5,1.4999,1.4999,0,1.3743,1.3822,1.3947,1.4069,1.4101,1.4171,1.4273,1.434,1.44,1.4499,1.4526,1.4619,1.4718,1.479,1.4916,1.495,1.5059,1.5071,1.5027,1.5033,1.5074,1.5069,1.5201,1.5221,1.5144,1.5145,1.5145,0,1.3794,1.3865,1.3995,1.4053,1.4113,1.4205,1.427,1.4343,1.4407,1.4522,1.4574,1.4677,1.4763,1.4918,1.4994,1.5091,1.5105,1.5145,1.512,1.51,1.5104,1.5099,1.5105,1.5148,1.5148,1.5149,1.5149,0,1.3875,1.391,1.4003,1.4109,1.4185,1.4271,1.4357,1.4401,1.4489,1.4558,1.4662,1.4729,1.4859,1.4959,1.5063,1.512,1.5148,1.5156,1.5172,1.5155,1.5126,1.5141,1.5035,1.5153,1.5152,1.5152,1.5152,1.5152,1.3921,1.3986,1.4088,1.4189,1.4262,1.4341,1.441,1.4479,1.4568,1.4682,1.4719,1.4825,1.4917,1.506,1.5118,1.52,1.5198,1.5221,1.5227,1.5231,1.5229,1.5114,1.5219,1.5219,1.5219,1.5219,1.5219,0,1.4004,1.4072,1.4164,1.4285,1.4363,1.4386,1.4482,1.4545,1.4639,1.4725,1.4809,1.4926,1.5023,1.5107,1.5207,1.5256,1.5271,1.5279,1.5276,1.5288,1.5226,1.5202,1.5265,1.5265,1.5265,1.5265,1.5265,1.5265,1.4056,1.4167,1.4214,1.436,1.4427,1.4534,1.4587,1.4659,1.4727,1.4857,1.4939,1.4995,1.5079,1.5185,1.5274,1.5296,1.5329,1.5334,1.5359,1.5298,1.5293,1.5287,1.5265,1.5341,1.5341,1.5415,1.5415,1.5416]}]]